Phoenix Deer Valley, AZ

11:04 PM MST on October 20, 2019 (GMT -0700)
Phoenix-Deer Valley Municipal

Weather History for KDVT - August, 2019

Change the Weather History Date:

Thursday, August 15, 2019

  Actual Average Record
Temperature  
Mean Temperature 100 °F -  
Max Temperature 109 °F 99 °F 111 °F (2015)
Min Temperature 91 °F 79 °F 73 °F (1998)
Cooling Degree Days 35    
Growing Degree Days 50 (Base 50)    
Moisture  
Dew Point 38 °F    
Average Humidity 11    
Maximum Humidity 19    
Minimum Humidity 6    
Precipitation  
Precipitation 0.00 in - - ()
Sea Level Pressure  
Sea Level Pressure 29.83 in    
Wind  
Wind Speed 7 mph (SW)    
Max Wind Speed 12 mph    
Max Gust Speed 21 mph    
Visibility 10 miles    
Events      
Averages and records for this station are not official NWS values.
T = Trace of Precipitation, MM = Missing Value Source: NWS Daily Summary

Daily Weather History Graph

Daily Weather History Graph

Search for Another Location

Airport or City:

Astronomy

Aug. 15, 2019 Rise Set
Actual Time 5:50 AM MST 7:14 PM MST
Civil Twilight 5:23 AM MST 7:41 PM MST
Nautical Twilight 4:52 AM MST 8:12 PM MST
Astronomical Twilight 4:19 AM MST 8:45 PM MST
Moon 7:44 PM MST (8/15) 5:50 AM MST (8/15)
Length of Visible Light 14h 17m
Length of Day
13h 24m
Full, 100% of the Moon is Illuminated
Aug 15
Full
Aug 23
Last Quarter
Aug 30
New
Sep 5
First Quarter
Sep 13
Full

Hourly Weather History & Observations

Time (MST) Temp. Dew Point Humidity Pressure Visibility Wind Dir Wind Speed Gust Speed Precip Events Conditions
12:53 AM - - N/A% 29.87 in - North - - N/A   Unknown
1:53 AM - - N/A% 29.87 in - North - - N/A   Unknown
2:53 AM - - N/A% 29.87 in - North - - N/A   Unknown
3:53 AM - - N/A% 29.89 in - North - - N/A   Unknown
4:53 AM - - N/A% 29.90 in - North - - N/A   Unknown
5:53 AM - - N/A% 29.92 in - North - - N/A   Unknown
6:53 AM - - N/A% 29.93 in - North - - N/A   Unknown
7:53 AM 91.9 °F 44.1 °F 19% 29.85 in 10.0 mi East 6.9 mph - N/A   Clear
8:53 AM 96.1 °F 45.0 °F 17% 29.86 in 10.0 mi Variable 4.6 mph - N/A   Clear
9:53 AM 100.0 °F 45.0 °F 15% 29.86 in 10.0 mi SSE 8.1 mph - N/A   Clear
10:53 AM 102.9 °F 46.0 °F 15% 29.84 in 10.0 mi ESE 5.8 mph - N/A   Clear
11:37 AM 104.0 °F 45.0 °F 14% 29.92 in 10.0 mi SSW 8.1 mph - N/A   Clear
11:53 AM 105.1 °F 46.0 °F 14% 29.83 in 10.0 mi Variable 4.6 mph - N/A   Clear
12:53 PM 107.1 °F 44.1 °F 12% 29.89 in 10.0 mi West 6.9 mph - N/A   Clear
1:53 PM 109.9 °F 36.0 °F 8% 29.86 in 10.0 mi WSW 11.5 mph 17.3 mph N/A   Clear
2:53 PM 109.9 °F 32.0 °F 7% 29.83 in 10.0 mi West 8.1 mph 16.1 mph N/A   Clear
3:53 PM 109.9 °F 33.1 °F 7% 29.81 in 10.0 mi North - - N/A   Clear
4:53 PM 109.9 °F 28.9 °F 6% 29.79 in 10.0 mi SW 9.2 mph 20.7 mph N/A   Clear
5:53 PM 108.0 °F 30.0 °F 7% 29.77 in 10.0 mi Variable 3.5 mph - N/A   Clear
6:53 PM 107.1 °F 30.0 °F 7% 29.77 in 10.0 mi WSW 10.4 mph - N/A   Clear
7:53 PM 102.9 °F 32.0 °F 8% 29.69 in 10.0 mi SSW 5.8 mph - N/A   Clear
8:53 PM 99.0 °F 33.1 °F 10% 29.71 in 10.0 mi South 3.5 mph - N/A   Clear
9:53 PM 98.1 °F 33.1 °F 10% 29.73 in 10.0 mi SW 6.9 mph - N/A   Clear
10:53 PM 96.1 °F 35.1 °F 12% 29.73 in 10.0 mi WNW 5.8 mph - N/A   Clear
11:53 PM - - N/A% 29.82 in - North - - N/A   Unknown